Location: Degersen
(52.2871°N, 9.5716°E)
Time: 00:41:25
(UTC+00:00)

Cosmos 1470 Rocket - Pass Details

Date: 20 January 2026
Orbit: 598 x 625 km, 82.5° (Epoch: 17 February)

Event Time Altitude Azimuth Distance (km) Brightness Sun altitude
Rises 06:21:21 0° 209° (SSW) 2,838 6.9 -8.7°
Reaches altitude 10° 06:23:40 10° 217° (SW) 1,938 6.0 -8.4°
Maximum altitude 06:27:42 40° 288° (WNW) 895 3.9 -7.8°
Drops below altitude 10° 06:31:46 10° 358° (N) 1,951 5.9 -7.2°
Sets 06:34:06 0° 6° (N) 2,860 6.8 -6.9°
